CZ-4 DEB

Satellite information

Favourite Embed

Satellite Type and Status

DEBRISIN ORBIT

Key statistics

Satellite CZ-4 DEB at a glance.

Uptime

8089

Days in orbit

Revolutions

≈ 14.4

Per day

Orbit

SSO

Sun Synchronous Orbit

Inclination

98.9

Latest

Satellite identification and parameters

Extended collection of information and parameters for CZ-4 DEB.

Object identification

Identified? True

Debris? True

Object name: CZ-4 DEB

International designator: 2003-049D

Object number (NORAD): 31131

Object ID (CCSDS): 31131

Country: PEOPLES REPUBLIC OF CHINA (PRC)

Current information (Y/N): Y

RCS size: SMALL

Orbital parameters

Period: 100.126 minutes

Inclination: 98.8609 deg

SMA: 7142.641 km

Apoapsis: 849.937 km

Periapsis: 679.075 km

RAAN: 8.1311 deg

Eccentricy: 0.01196071

Argument of periapsis: 271.6472 deg

Mean anomaly: 148.1387 deg

Mean motion: 14.38184183 rev/day

Mean motion (dot): 0.00003101 rev/day2

B* drag term: 0.00095538726 1/REarth

Two-line elements (TLE)

Creation date: Dec. 11, 2025, 10:54 a.m.

Reference frame: TEME

Reference center: EARTH

Epoch: Dec. 11, 2025, 7:07 a.m. UTC

TLE line 0: 0 CZ-4 DEB

TLE line 1: 1 31131U 03049D 25345.29686521 .00003101 00000-0 95539-3 0 9992

TLE line 2: 2 31131 98.8609 8.1311 0119607 271.6472 148.1387 14.38184183972694

Live tracking on map

Real-time ground track for satellite CZ-4 DEB.

In-orbit conjunctions

A list of the most updated potential collisions computed for object CZ-4 DEB.

Target Orbit TCA Probability of collision Miss distance Type
COSMOS 1850 LEO 2025-09-12 16:12:31 0.001221778 481.0 (m) PAYLOAD
CZ-6A DEB SSO 2025-03-25 19:01:03 0.0002402041 36.0 (m) DEBRIS

Associated space launch

The satellite is China's first operational civilian remote-sensing satellite, specifically designed for the Chinese Ministry of Land and Resources (MLR).

CZ-4 DEB was lifted into orbit during the mission ‘Long March 4B | Zi Yuan 1-2’, on board a Long March 4B space rocket.

The launch took place on Oct. 21, 2003, 3:16 a.m. from Launch Complex 7.

For more information about the launch, click the button.

Launch to space Long March 4B | Zi Yuan 1-2
Long March 4B | Zi Yuan 1-2

Agency: N/A

Status: Launch Successful

Launch date: Oct. 21, 2003, 3:16 a.m. UTC

Rocket: Long March 4B

Launch pad: Launch Complex 7

Location: Taiyuan Satellite Launch Center, People's Republic of China

...

Latest news about this satellite

There are no fresh news available about this satellite. Check back as we update our databases every day.


Newsletter sign-up

Weekly statistics, charts and insights to help you stay on top of the space industry.